Weather History for San Antonio, TX

Change the Weather History Date:

Monday, February 10, 2014

  Actual Average Record
Temperature  
Mean Temperature 50 °F 55 °F  
Max Temperature 62 °F 66 °F 88 °F (1954)
Min Temperature 37 °F 43 °F 19 °F (1899)
Degree Days  
Heating Degree Days 15 11  
Month to date heating degree days 159 117  
Since 1 July heating degree days 1227 1135  
Cooling Degree Days 0 1  
Month to date cooling degree days 8 6  
Year to date cooling degree days 11 13  
Moisture  
Dew Point 44 °F    
Average Humidity 81    
Maximum Humidity 97    
Minimum Humidity 65    
Precipitation  
Precipitation T in 0.06 in 1.56 in (1993)
Month to date precipitation 0.21 0.62  
Year to date precipitation 0.44 2.38  
Snow  
Snow 0.00 in - - ()
Month to date snowfall 0.3  
Since 1 July snowfall 0.4  
Snow Depth 0.00 in    
Sea Level Pressure  
Sea Level Pressure 30.05 in    
Wind  
Wind Speed 11 mph (NNE)    
Max Wind Speed 21 mph    
Max Gust Speed 26 mph    
Visibility 6 miles    
Events Fog , Rain    
T = Trace of Precipitation, MM = Missing Value Source: NWS Daily Summary

Daily Weather History Graph

Daily Weather History Graph

Search for Another Location

Airport:

Trip Planner

Search our weather history database for the weather conditions in past years. The results will help you decide how hot, cold, wet, or windy it might be!

Date:

Astronomy

Feb. 10, 2014 Rise Set
Actual Time 7:17 AM CST 6:19 PM CST
Civil Twilight 6:52 AM CST 6:43 PM CST
Nautical Twilight 6:24 AM CST 7:12 PM CST
Astronomical Twilight 5:56 AM CST 7:39 PM CST
Moon 2:56 PM CST (2/10) 4:04 AM CST (2/10)
Length of Visible Light 11h 51m
Length of Day
11h 02m
Waxing Gibbous, 85% of the Moon is Illuminated
Feb 10
Waxing Gibbous
Feb 14
Full
Feb 22
Last Quarter
Mar 1
New
Mar 8
First Quarter

Hourly Weather History & Observations

Time (CST) Temp. Windchill Dew Point Humidity Pressure Visibility Wind Dir Wind Speed Gust Speed Precip Events Conditions
12:24 AM 60.8 °F - 57.2 °F 88% 29.99 in 1.0 mi Calm Calm - N/A   Overcast
12:51 AM 61.0 °F - 57.0 °F 87% 29.95 in 0.5 mi SSE 4.6 mph - N/A Fog Fog
1:18 AM 60.8 °F - 59.0 °F 94% 29.99 in 0.1 mi Calm Calm - N/A Fog Fog
1:41 AM 60.8 °F - 59.0 °F 94% 30.00 in 0.1 mi NNE 3.5 mph - N/A Fog Fog
1:51 AM 61.0 °F - 59.0 °F 93% 29.96 in 0.1 mi NE 3.5 mph - N/A Fog Fog
2:13 AM 60.8 °F - 59.0 °F 94% 30.00 in 0.1 mi Calm Calm - N/A Fog Fog
2:23 AM 60.8 °F - 59.0 °F 94% 30.00 in 0.1 mi Calm Calm - N/A Fog Fog
2:51 AM 61.0 °F - 60.1 °F 97% 29.96 in 0.1 mi Calm Calm - 0.00 in Fog Light Drizzle
3:43 AM 60.8 °F - 59.0 °F 94% 29.99 in 0.1 mi NE 4.6 mph - 0.00 in Fog Light Drizzle
3:51 AM 61.0 °F - 59.0 °F 93% 29.96 in 0.1 mi NE 4.6 mph - 0.00 in Fog Light Drizzle
4:51 AM 61.0 °F - 59.0 °F 93% 29.97 in 0.1 mi Calm Calm - 0.00 in Fog Light Drizzle
5:51 AM 60.1 °F - 57.9 °F 93% 29.98 in 0.1 mi NE 5.8 mph - 0.00 in   Light Drizzle
6:11 AM 53.6 °F - 51.8 °F 94% 30.02 in 2.0 mi NNE 13.8 mph - 0.00 in   Light Drizzle
6:51 AM 51.1 °F - 48.9 °F 92% 30.02 in 2.0 mi NNE 9.2 mph - 0.00 in   Light Drizzle
7:14 AM 50.0 °F - 46.4 °F 87% 30.06 in 1.0 mi North 12.7 mph - 0.00 in   Light Drizzle
7:51 AM 48.9 °F - 46.0 °F 90% 30.06 in 1.0 mi North 12.7 mph 19.6 mph 0.00 in   Light Drizzle
8:48 AM 46.4 °F 40.4 °F 44.6 °F 93% 30.10 in 2.0 mi NNE 13.8 mph 23.0 mph 0.00 in   Light Drizzle
8:51 AM 46.9 °F - 44.1 °F 90% 30.08 in 2.0 mi North 11.5 mph 23.0 mph 0.00 in   Light Drizzle
9:35 AM 46.4 °F 40.4 °F 41.0 °F 81% 30.12 in 7.0 mi North 13.8 mph 24.2 mph 0.00 in   Light Drizzle
9:51 AM 46.0 °F 41.4 °F 39.9 °F 79% 30.11 in 7.0 mi NNE 9.2 mph 21.9 mph 0.00 in   Overcast
10:51 AM 46.0 °F 39.0 °F 39.0 °F 76% 30.12 in 10.0 mi North 17.3 mph 25.3 mph 0.00 in   Light Drizzle
11:26 AM 46.4 °F 40.4 °F 37.4 °F 71% 30.13 in 10.0 mi North 13.8 mph 19.6 mph 0.00 in   Overcast
11:51 AM 48.0 °F - 37.9 °F 68% 30.10 in 10.0 mi North 19.6 mph 26.5 mph 0.00 in   Overcast
12:51 PM 46.9 °F - 37.0 °F 68% 30.09 in 10.0 mi NNE 13.8 mph 25.3 mph N/A   Overcast
1:31 PM 46.4 °F 39.5 °F 37.4 °F 71% 30.10 in 10.0 mi North 17.3 mph 24.2 mph 0.00 in   Overcast
1:51 PM 46.0 °F 39.0 °F 36.0 °F 68% 30.06 in 10.0 mi North 17.3 mph 26.5 mph 0.00 in   Overcast
2:51 PM 46.0 °F 39.3 °F 36.0 °F 68% 30.03 in 10.0 mi NNE 16.1 mph 20.7 mph N/A   Overcast
3:51 PM 45.0 °F 37.9 °F 35.1 °F 68% 30.03 in 10.0 mi North 16.1 mph - N/A   Overcast
4:51 PM 44.1 °F 37.4 °F 35.1 °F 71% 30.05 in 10.0 mi NNE 13.8 mph - N/A   Overcast
5:51 PM 42.1 °F 35.2 °F 34.0 °F 73% 30.06 in 10.0 mi NNE 12.7 mph 23.0 mph N/A   Overcast
6:51 PM 42.1 °F 35.2 °F 33.1 °F 70% 30.08 in 10.0 mi NNE 12.7 mph 20.7 mph N/A   Overcast
7:51 PM 41.0 °F 33.9 °F 33.1 °F 73% 30.09 in 10.0 mi NNE 12.7 mph 23.0 mph N/A   Overcast
8:51 PM 39.9 °F 33.9 °F 32.0 °F 73% 30.11 in 10.0 mi North 9.2 mph 18.4 mph N/A   Overcast
9:51 PM 39.0 °F 30.3 °F 32.0 °F 76% 30.12 in 10.0 mi NNE 16.1 mph 21.9 mph N/A   Overcast
10:35 PM 39.2 °F 31.6 °F 32.0 °F 75% 30.15 in 10.0 mi North 12.7 mph 23.0 mph N/A   Overcast
10:51 PM 37.9 °F 28.5 °F 30.9 °F 76% 30.13 in 10.0 mi NNE 17.3 mph 25.3 mph N/A   Overcast
11:51 PM 37.0 °F 29.3 °F 30.9 °F 79% 30.12 in 10.0 mi NNE 11.5 mph 20.7 mph N/A   Overcast